logo tempoitalia

Diretta Meteo Williams Clark, Stati Uniti (USA)domenica 30 agosto ore 23:35

Mappa
Sereno 20 °C Sereno 24 Ore: T.min 15 T.max 26
Ponente Sud Km/h 13 Punto di rugiada: 13 °C Umidità: 64% Visibilità: 10 Km
Il sole sorge alle: 06:00 Il sole tramonta alle: 18:58
30 Agosto 2026 23:35 tempo osservato: Sereno Sereno 20 64 1024 vento: Nord S 13
30 Agosto 2026 23:15 tempo osservato: Sereno Sereno 20 64 1024 vento: Nord S/SO 11.1
30 Agosto 2026 22:55 tempo osservato: Sereno Sereno 20 59 1024 vento: Nord S/SO 9.3
30 Agosto 2026 22:35 tempo osservato: Sereno Sereno 20 59 1024 vento: Nord S 11.1
30 Agosto 2026 22:15 tempo osservato: Sereno Sereno 21 52 1024 vento: Nord S 11.1
30 Agosto 2026 21:55 tempo osservato: Sereno Sereno 21 46 1025 vento: Nord S/SO 9.3
30 Agosto 2026 21:35 tempo osservato: Sereno Sereno 21 43 1024 vento: Nord S/SO 9.3
30 Agosto 2026 21:15 tempo osservato: Sereno Sereno 21 43 1024 vento: Nord SO 11.1
30 Agosto 2026 20:55 tempo osservato: Sereno Sereno 21 46 1024 vento: Nord S/SO 14.8
30 Agosto 2026 20:35 tempo osservato: Sereno Sereno 21 56 1024 vento: Nord S/SO 7.4
30 Agosto 2026 20:15 tempo osservato: Sereno Sereno 21 60 1024 vento: Nord S 9.3
30 Agosto 2026 19:55 tempo osservato: Sereno Sereno 21 60 1023 vento: Nord S 11.1
30 Agosto 2026 19:35 tempo osservato: Poco Nuvoloso Poco Nuvoloso 21 60 1023 vento: Nord SO 14.8
30 Agosto 2026 19:15 tempo osservato: Nuvoloso Nuvoloso 22 56 1023 vento: Nord SO 9.3
30 Agosto 2026 18:55 tempo osservato: Sereno Sereno 22 53 1023 vento: Nord O/SO 20.3
30 Agosto 2026 18:35 tempo osservato: Sereno Sereno 23 49 1024 vento: Nord SO 20.3
30 Agosto 2026 18:15 tempo osservato: Sereno Sereno 23 46 1024 vento: Nord SO 16.7
30 Agosto 2026 17:55 tempo osservato: Sereno Sereno 23 46 1023 vento: Nord SO 18.5
30 Agosto 2026 17:35 tempo osservato: Sereno Sereno 23 46 1023 vento: Nord SO 18.5
30 Agosto 2026 17:15 tempo osservato: Sereno Sereno 24 43 1023 vento: Nord SO 24
30 Agosto 2026 16:55 tempo osservato: Sereno Sereno 25 41 1023 vento: Nord S/SO 20.3
30 Agosto 2026 16:35 tempo osservato: Poco Nuvoloso Poco Nuvoloso 24 47 1023 vento: Nord S/SO 20.3
30 Agosto 2026 16:15 tempo osservato: Poco Nuvoloso Poco Nuvoloso 24 50 1024 vento: Nord S 27.8
30 Agosto 2026 15:55 tempo osservato: Nuvoloso Nuvoloso 24 50 1023 vento: Nord S 24
30 Agosto 2026 15:35 tempo osservato: Poco Nuvoloso Poco Nuvoloso 25 47 1024 vento: Nord S 25.9
30 Agosto 2026 15:15 tempo osservato: Poco Nuvoloso Poco Nuvoloso 26 41 1024 vento: Nord S 22.2
30 Agosto 2026 14:55 tempo osservato: Poco Nuvoloso Poco Nuvoloso 25 47 1024 vento: Nord S/SO 25.9
30 Agosto 2026 14:35 tempo osservato: Poco Nuvoloso Poco Nuvoloso 25 44 1024 vento: Nord S 24
30 Agosto 2026 14:15 tempo osservato: Poco Nuvoloso Poco Nuvoloso 26 41 1024 vento: Nord S/SO 27.8
30 Agosto 2026 13:55 tempo osservato: Molto Nuvoloso Molto Nuvoloso 26 41 1025 vento: Nord S 25.9
30 Agosto 2026 13:35 tempo osservato: Nuvoloso Nuvoloso 26 39 1025 vento: Nord S 33.3
30 Agosto 2026 13:15 tempo osservato: Poco Nuvoloso Poco Nuvoloso 26 39 1025 vento: Nord S/SO 24
30 Agosto 2026 12:55 tempo osservato: Nuvoloso Nuvoloso 26 39 1025 vento: Nord S/SO 27.8
30 Agosto 2026 12:35 tempo osservato: Nuvoloso Nuvoloso 26 41 1025 vento: Nord S 24
30 Agosto 2026 12:15 tempo osservato: Nuvoloso Nuvoloso 26 41 1026 vento: Nord S 18.5
30 Agosto 2026 11:55 tempo osservato: Sereno Sereno 25 44 1026 vento: Nord S/SO 20.3
30 Agosto 2026 11:35 tempo osservato: Sereno Sereno 25 44 1026 vento: Nord S 22.2
30 Agosto 2026 11:15 tempo osservato: Sereno Sereno 24 47 1026 vento: Nord S 20.3
30 Agosto 2026 10:55 tempo osservato: Sereno Sereno 24 47 1026 vento: Nord S/SO 22.2
30 Agosto 2026 10:35 tempo osservato: Sereno Sereno 24 47 1026 vento: Nord S 25.9
30 Agosto 2026 10:15 tempo osservato: Sereno Sereno 24 47 1026 vento: Nord S 24
30 Agosto 2026 09:55 tempo osservato: Sereno Sereno 24 43 1026 vento: Nord SO 24
30 Agosto 2026 09:35 tempo osservato: Sereno Sereno 24 43 1026 vento: Nord S 20.3
30 Agosto 2026 09:15 tempo osservato: Sereno Sereno 23 46 1026 vento: Nord S/SO 25.9
30 Agosto 2026 08:55 tempo osservato: Sereno Sereno 23 46 1026 vento: Nord S 24
30 Agosto 2026 08:35 tempo osservato: Sereno Sereno 22 53 1026 vento: Nord S 22.2
30 Agosto 2026 08:15 tempo osservato: Sereno Sereno 22 53 1026 vento: Nord S 27.8
30 Agosto 2026 07:55 tempo osservato: Sereno Sereno 21 60 1026 vento: Nord S/SE 14.8
30 Agosto 2026 07:35 tempo osservato: Sereno Sereno 20 64 1026 vento: Nord S 16.7
30 Agosto 2026 07:15 tempo osservato: Sereno Sereno 18 72 1025 vento: Nord S/SE 13
30 Agosto 2026 06:55 tempo osservato: Sereno Sereno 17 77 1025 vento: Nord S/SE 14.8
30 Agosto 2026 06:35 tempo osservato: Sereno Sereno 16 82 1025 vento: Nord S/SE 14.8
30 Agosto 2026 06:15 tempo osservato: Sereno Sereno 15 87 1025 vento: Nord S/SE 13
30 Agosto 2026 05:55 tempo osservato: Sereno Sereno 15 87 1025 vento: Nord S/SE 16.7
30 Agosto 2026 05:35 tempo osservato: Sereno Sereno 15 87 1025 vento: Nord S/SE 18.5
30 Agosto 2026 05:15 tempo osservato: Sereno Sereno 16 82 1025 vento: Nord S/SE 18.5
30 Agosto 2026 04:55 tempo osservato: Poco Nuvoloso Poco Nuvoloso 16 82 1025 vento: Nord SE 20.3
30 Agosto 2026 04:35 tempo osservato: Poco Nuvoloso Poco Nuvoloso 16 82 1025 vento: Nord S/SE 18.5
30 Agosto 2026 04:15 tempo osservato: Sereno Sereno 16 82 1025 vento: Nord S/SE 22.2
30 Agosto 2026 03:55 tempo osservato: Sereno Sereno 16 82 1025 vento: Nord SE 22.2
30 Agosto 2026 03:35 tempo osservato: Poco Nuvoloso Poco Nuvoloso 17 77 1025 vento: Nord SE 18.5
30 Agosto 2026 03:15 tempo osservato: Nuvoloso Nuvoloso 17 77 1025 vento: Nord SE 20.3
30 Agosto 2026 02:55 tempo osservato: Nuvoloso Nuvoloso 17 77 1025 vento: Nord S/SE 20.3
30 Agosto 2026 02:35 tempo osservato: Molto Nuvoloso Molto Nuvoloso 18 72 1025 vento: Nord S/SE 31.5
30 Agosto 2026 02:15 tempo osservato: Molto Nuvoloso Molto Nuvoloso 18 67 1024 vento: Nord S/SE 27.8
30 Agosto 2026 01:55 tempo osservato: Nuvoloso Nuvoloso 18 63 1025 vento: Nord S 31.5
30 Agosto 2026 01:35 tempo osservato: Poco Nuvoloso Poco Nuvoloso 17 72 1024 vento: Nord S/SE 16.7
30 Agosto 2026 01:15 tempo osservato: Sereno Sereno 17 72 1024 vento: Nord SE 18.5
30 Agosto 2026 00:55 tempo osservato: Sereno Sereno 17 72 1024 vento: Nord S/SE 16.7
30 Agosto 2026 00:35 tempo osservato: Sereno Sereno 17 67 1024 vento: Nord S/SE 14.8
30 Agosto 2026 00:15 tempo osservato: Sereno Sereno 17 67 1025 vento: Nord S/SE 14.8
29 Agosto 2026 23:55 tempo osservato: Sereno Sereno 17 67 1025 vento: Nord S/SE 14.8
29 Agosto 2026 23:35 tempo osservato: Sereno Sereno 17 67 1025 vento: Nord S/SE 14.8